Location: Hochstatterhof
(48.7256°N, 10.3487°E)
Time: 03:09:07
(UTC+00:00)

Cosmos 372 Rocket - Pass Details

Date: 26 September 2023
Orbit: 735 x 767 km, 74.1° (Epoch: 04 December)

Event Time Altitude Azimuth Distance (km) Brightness Sun altitude
Exits shadow 03:29:12 31° 255° (WSW) 1,289 4.6 -17.2°
Maximum altitude 03:31:00 42° 301° (WNW) 1,054 4.4 -16.9°
Drops below altitude 10° 03:35:50 10° 12° (NNE) 2,258 6.8 -16.2°
Sets 03:38:20 0° 19° (NNE) 3,189 7.7 -15.8°
